GW2699 Weather Reports


time (UTC)temp
C
wind
direction
speed
KPH
gust
KPH
rain 1hr
cm
rain 24hr
cm
rain mn
cm
humidity
%
barometer
mb
20260507224043 15 0 4.8 12.9 0.00 0.13 0.03 31 1004.6
20260507223543 15 229 3.2 16.1 0.00 0.13 0.03 33 1004.6
20260507223050 16 241 4.8 16.1 0.00 0.13 0.03 31 1004.6
20260507222544 16 223 1.6 9.7 0.00 0.13 0.03 30 1004.5
20260507222046 16 261 1.6 20.9 0.00 0.13 0.03 31 1004.4
20260507221551 16 290 4.8 20.9 0.00 0.13 0.03 31 1004.4
20260507221044 16 310 1.6 20.9 0.00 0.13 0.03 33 1004.3
20260507220543 16 267 4.8 20.9 0.00 0.13 0.03 32 1004.3
20260507220049 16 306 4.8 12.9 0.00 0.13 0.03 34 1004.3
20260507215545 16 288 3.2 14.5 0.00 0.33 0.03 29 1004.3
20260507215044 16 260 4.8 14.5 0.00 0.33 0.03 32 1004.1
20260507214552 17 14 3.2 14.5 0.00 0.33 0.03 31 1004.1
20260507214043 16 313 3.2 14.5 0.00 0.33 0.03 32 1004.2
20260507213546 16 276 6.4 14.5 0.00 0.33 0.03 31 1004.2
20260507213052 17 240 4.8 12.9 0.00 0.33 0.03 33 1004.0
20260507212544 17 306 4.8 12.9 0.00 0.33 0.03 31 1004.2
20260507212043 17 282 3.2 11.3 0.00 0.33 0.03 33 1004.2
20260507211631 17 293 1.6 19.3 0.00 0.33 0.03 35 1004.1
20260507211043 17 76 1.6 19.3 0.00 0.33 0.03 35 1004.2
20260507210546 17 260 3.2 14.5 0.00 0.33 0.03 34 1004.3
20260507210055 17 65 3.2 19.3 0.00 0.33 0.03 32 1004.2
20260507205544 17 235 8.0 19.3 0.00 0.58 0.03 32 1004.2
20260507205044 17 340 4.8 12.9 0.00 0.58 0.03 32 1004.1
20260507204558 17 279 4.8 12.9 0.00 0.58 0.03 31 1004.2
20260507204044 17 287 1.6 11.3 0.00 0.58 0.03 35 1004.1
20260507203543 17 267 3.2 14.5 0.00 0.58 0.03 34 1004.1
20260507203051 17 319 6.4 14.5 0.00 0.58 0.03 34 1004.0
20260507202543 17 19 3.2 12.9 0.00 0.58 0.03 35 1003.9
20260507202047 17 265 3.2 12.9 0.00 0.58 0.03 32 1004.1
20260507201557 16 5 3.2 9.7 0.00 0.58 0.03 32 1004.1
20260507201043 17 238 1.6 9.7 0.00 0.58 0.03 35 1004.2
20260507200542 17 316 4.8 9.7 0.00 0.58 0.03 35 1004.2
20260507200108 16 352 3.2 12.9 0.00 0.58 0.03 39 1004.1
20260507195545 17 292 4.8 12.9 0.00 0.69 0.03 34 1004.2
20260507195044 17 286 4.8 12.9 0.00 0.69 0.03 37 1004.1
20260507194601 17 326 4.8 11.3 0.00 0.69 0.03 33 1004.2
20260507194044 17 298 4.8 16.1 0.00 0.69 0.03 36 1004.3
20260507193543 17 315 4.8 19.3 0.00 0.69 0.03 32 1004.3
20260507193056 17 297 6.4 19.3 0.00 0.69 0.03 34 1004.4
20260507192543 17 352 4.8 17.7 0.00 0.69 0.03 36 1004.7
20260507192047 17 110 6.4 20.9 0.00 0.69 0.03 32 1004.5
20260507191555 17 251 6.4 20.9 0.00 0.69 0.03 38 1004.4
20260507191043 17 191 4.8 16.1 0.00 0.69 0.03 34 1004.5
20260507190544 17 292 3.2 14.5 0.00 0.69 0.03 35 1004.7
20260507190057 17 220 4.8 16.1 0.00 0.69 0.03 34 1004.7
20260507185543 17 291 6.4 16.1 0.00 0.81 0.03 34 1004.8
20260507185044 17 234 4.8 19.3 0.00 0.81 0.03 36 1004.8
20260507184551 17 321 3.2 19.3 0.00 0.81 0.03 36 1004.7
20260507184043 17 202 4.8 16.1 0.00 0.81 0.03 34 1004.8
20260507183544 17 274 4.8 16.1 0.00 0.81 0.03 36 1004.7
20260507183052 18 291 6.4 16.1 0.00 0.81 0.03 34 1004.8
20260507182543 18 302 3.2 14.5 0.00 0.81 0.03 37 1004.7
20260507182044 17 292 6.4 20.9 0.00 0.81 0.03 35 1004.8
20260507181601 17 308 6.4 25.7 0.00 0.81 0.03 37 1004.8
20260507181043 17 205 6.4 25.7 0.00 0.81 0.03 36 1004.8
20260507180544 17 285 6.4 17.7 0.00 0.81 0.03 38 1004.8
20260507180053 17 157 4.8 17.7 0.00 0.81 0.03 37 1004.8
20260507175543 17 333 4.8 17.7 0.00 0.81 0.03 41 1004.7
20260507175044 17 308 4.8 11.3 0.00 0.81 0.03 38 1004.7
20260507174610 17 301 3.2 17.7 0.00 0.81 0.03 39 1004.7
20260507174044 17 243 4.8 17.7 0.00 0.81 0.03 40 1004.7
20260507173544 17 313 4.8 17.7 0.00 0.81 0.03 37 1004.8
20260507173057 17 315 4.8 14.5 0.00 0.81 0.03 40 1004.8
20260507172543 17 254 3.2 14.5 0.00 0.81 0.03 40 1004.9
20260507172043 16 312 4.8 14.5 0.00 0.81 0.03 40 1005.0
20260507171559 16 318 4.8 16.1 0.00 0.81 0.03 40 1005.0
20260507171044 16 221 6.4 16.1 0.00 0.81 0.03 43 1004.9
20260507170544 15 159 4.8 16.1 0.00 0.81 0.03 46 1005.2
20260507170052 15 325 4.8 17.7 0.00 0.81 0.03 45 1005.3
20260507165543 16 286 6.4 17.7 0.00 0.81 0.03 46 1005.3
20260507165043 16 216 4.8 14.5 0.00 0.81 0.03 50 1005.3
20260507164552 15 259 3.2 9.7 0.00 0.81 0.03 49 1005.3
20260507164049 16 270 3.2 9.7 0.00 0.81 0.03 51 1005.4
20260507163544 16 304 3.2 12.9 0.00 0.81 0.03 53 1005.4
20260507163054 16 287 3.2 16.1 0.00 0.81 0.03 52 1005.4
20260507162544 16 257 6.4 16.1 0.00 0.81 0.03 50 1005.4
20260507162044 16 320 3.2 16.1 0.00 0.81 0.03 55 1005.5
20260507161558 15 5 3.2 16.1 0.00 0.81 0.03 54 1005.6
20260507161044 15 232 6.4 16.1 0.00 0.81 0.03 51 1005.7
20260507160544 15 159 3.2 14.5 0.00 0.81 0.03 54 1005.6
20260507160056 15 273 3.2 19.3 0.00 0.81 0.03 54 1005.8
20260507155543 15 210 8.0 19.3 0.00 0.81 0.03 51 1005.7
20260507155043 16 307 4.8 9.7 0.00 0.81 0.03 51 1005.8
20260507154559 16 80 3.2 16.1 0.00 0.81 0.03 55 1005.8
20260507154043 15 307 4.8 16.1 0.00 0.81 0.03 52 1006.0
20260507153543 15 298 4.8 14.5 0.00 0.81 0.03 52 1006.0
20260507153059 15 222 3.2 9.7 0.00 0.81 0.03 54 1006.2
20260507152544 15 328 3.2 14.5 0.00 0.81 0.03 55 1006.1
20260507152045 15 210 4.8 17.7 0.00 0.81 0.03 55 1006.2
20260507151550 15 165 8.0 17.7 0.00 0.81 0.03 54 1006.2
20260507151044 15 242 3.2 11.3 0.00 0.81 0.03 56 1006.3
20260507150542 14 310 3.2 19.3 0.00 0.81 0.03 55 1006.5
20260507150054 14 239 4.8 19.3 0.00 0.81 0.03 57 1006.4
20260507145542 15 292 1.6 19.3 0.00 0.81 0.03 53 1006.5
20260507145042 15 304 3.2 19.3 0.00 0.81 0.03 57 1006.4
20260507144553 15 251 4.8 17.7 0.00 0.81 0.03 52 1006.5
20260507144043 15 300 3.2 17.7 0.00 0.81 0.03 56 1006.4
20260507143542 15 341 4.8 17.7 0.00 0.81 0.03 53 1006.2
20260507143046 15 246 3.2 12.9 0.00 0.81 0.03 57 1006.1
20260507142542 15 280 4.8 12.9 0.00 0.81 0.03 53 1006.1
20260507142042 15 327 3.2 11.3 0.00 0.81 0.03 57 1006.1
20260507141548 15 221 3.2 11.3 0.00 0.81 0.03 57 1006.1
20260507141042 15 287 1.6 4.8 0.00 0.81 0.03 54 1006.2
20260507140542 15 286 0.0 6.4 0.00 0.81 0.03 59 1006.1
20260507140051 15 294 1.6 6.4 0.00 0.81 0.03 59 1006.1
20260507135542 14 336 1.6 11.3 0.00 0.81 0.03 62 1006.2
20260507135043 13 273 3.2 11.3 0.00 0.81 0.03 56 1006.2
20260507134552 13 0 3.2 9.7 0.00 0.81 0.03 56 1006.3
20260507134041 13 231 4.8 12.9 0.00 0.81 0.03 61 1006.4
20260507133543 13 197 3.2 12.9 0.00 0.81 0.03 63 1006.5
20260507133055 13 221 3.2 11.3 0.00 0.81 0.03 59 1006.7
20260507132541 13 218 3.2 11.3 0.00 0.81 0.03 62 1006.7
20260507132045 13 254 3.2 9.7 0.00 0.81 0.03 60 1006.8
20260507131559 13 231 1.6 9.7 0.00 0.81 0.03 65 1006.7
20260507131042 12 0 0.0 8.0 0.00 0.81 0.03 64 1006.8
20260507130542 12 330 1.6 8.0 0.00 0.81 0.03 68 1006.7
20260507130105 12 198 1.6 8.0 0.00 0.81 0.03 68 1006.8
20260507125542 12 252 1.6 8.0 0.00 0.81 0.03 71 1006.9
20260507125042 11 273 1.6 6.4 0.00 0.81 0.03 71 1006.9
20260507124553 11 0 1.6 6.4 0.00 0.81 0.03 70 1006.8
20260507124042 11 0 1.6 6.4 0.00 0.81 0.03 71 1006.9
20260507123542 11 0 1.6 6.4 0.00 0.81 0.03 73 1007.0
20260507123050 11 254 0.0 6.4 0.00 0.81 0.03 72 1007.0
20260507122541 11 254 0.0 6.4 0.00 0.81 0.03 74 1007.0
20260507122042 10 252 1.6 6.4 0.00 0.81 0.03 74 1006.9
20260507121559 10 252 3.2 12.9 0.00 0.81 0.03 76 1006.9
20260507121044 10 246 4.8 12.9 0.00 0.81 0.03 77 1006.9
20260507120542 10 309 1.6 8.0 0.00 0.81 0.03 79 1006.9
20260507120045 10 0 0.0 11.3 0.00 0.81 0.03 79 1006.9
20260507115542 10 0 0.0 11.3 0.00 0.81 0.03 80 1006.8
20260507115043 10 224 0.0 1.6 0.00 0.81 0.03 80 1006.8
20260507114603 10 0 0.0 0.0 0.00 0.81 0.03 81 1006.8
20260507114042 10 0 0.0 0.0 0.00 0.81 0.03 81 1006.7
20260507113543 9 0 0.0 1.6 0.00 0.81 0.03 83 1006.9
20260507113052 9 0 0.0 1.6 0.00 0.81 0.03 84 1006.8
20260507112544 9 0 0.0 1.6 0.00 0.81 0.03 82 1007.1
20260507112041 9 0 0.0 0.0 0.00 0.81 0.03 84 1007.1
20260507111604 9 0 0.0 3.2 0.00 0.81 0.03 86 1007.0
20260507111042 8 0 0.0 3.2 0.00 0.81 0.03 85 1006.8
20260507110543 8 246 0.0 3.2 0.00 0.81 0.03 86 1006.8
20260507110049 8 0 0.0 3.2 0.00 0.81 0.03 86 1006.7
20260507105542 8 0 0.0 3.2 0.00 0.81 0.03 86 1006.8
20260507105041 8 246 0.0 4.8 0.00 0.81 0.03 87 1006.8
20260507104551 8 0 0.0 4.8 0.00 0.81 0.03 87 1006.6
20260507104045 8 329 0.0 4.8 0.00 0.81 0.03 86 1006.7
20260507103542 8 0 0.0 3.2 0.00 0.81 0.03 87 1006.7
20260507103054 8 0 0.0 3.2 0.00 0.81 0.03 87 1006.9
20260507102542 8 0 0.0 3.2 0.00 0.81 0.03 87 1006.6
20260507102042 8 0 0.0 3.2 0.00 0.81 0.03 87 1006.6
20260507101603 8 240 0.0 3.2 0.00 0.81 0.03 87 1006.6
20260507101042 8 240 0.0 3.2 0.00 0.81 0.03 87 1006.8
20260507100542 8 0 0.0 1.6 0.00 0.81 0.03 87 1007.0
20260507100055 8 240 0.0 6.4 0.00 0.81 0.03 87 1006.8
20260507095542 8 0 0.0 6.4 0.00 0.81 0.03 87 1006.9
20260507095043 8 0 0.0 3.2 0.00 0.81 0.03 87 1006.9
20260507094549 8 279 0.0 3.2 0.00 0.81 0.03 87 1006.7
20260507094041 8 279 0.0 3.2 0.00 0.81 0.03 88 1006.5
20260507093542 8 0 0.0 1.6 0.00 0.81 0.03 87 1006.4
20260507093053 8 0 0.0 4.8 0.00 0.81 0.03 87 1006.5
20260507092543 8 279 0.0 4.8 0.00 0.81 0.03 87 1006.7
20260507092042 8 0 0.0 1.6 0.00 0.81 0.03 87 1006.8
20260507091549 8 0 0.0 4.8 0.03 0.81 0.03 87 1006.1
20260507091043 8 0 0.0 4.8 0.03 0.81 0.03 87 1006.1
20260507090542 8 288 0.0 4.8 0.03 0.81 0.03 88 1006.7
20260507090044 8 288 0.0 4.8 0.03 0.81 0.03 87 1006.6
20260507085542 8 0 0.0 4.8 0.03 0.81 0.03 88 1006.2
20260507085043 8 0 0.0 0.0 0.03 0.81 0.03 88 1005.9
20260507084548 8 0 0.0 0.0 0.03 0.81 0.03 88 1005.9
20260507084044 8 0 0.0 0.0 0.03 0.81 0.03 88 1006.0
20260507083543 8 0 0.0 0.0 0.03 0.81 0.03 87 1005.9
20260507083050 8 0 0.0 0.0 0.03 0.81 0.03 88 1005.9
20260507082542 9 0 0.0 0.0 0.03 0.81 0.03 87 1005.7
20260507082046 9 0 0.0 0.0 0.03 0.81 0.03 87 1005.8
20260507081554 9 0 0.0 0.0 0.00 0.79 0.00 85 1005.8
20260507081042 10 0 0.0 6.4 0.00 0.79 0.00 84 1005.9
20260507080543 10 0 0.0 6.4 0.00 0.79 0.00 84 1006.2
20260507080052 10 0 1.6 6.4 0.00 0.79 0.00 83 1006.1
20260507075542 10 265 1.6 6.4 0.00 0.79 0.00 84 1005.9
20260507075042 10 0 0.0 6.4 0.00 0.79 0.00 84 1005.9
20260507074601 10 294 1.6 11.3 0.00 0.79 0.00 84 1005.8
20260507074040 10 0 1.6 11.3 0.00 0.79 0.00 84 1005.7
20260507073547 10 321 1.6 6.4 0.00 0.79 0.00 85 1005.7
20260507073049 10 0 0.0 8.0 0.00 0.79 0.00 85 1005.7
20260507072543 10 0 1.6 8.0 0.00 0.79 0.00 85 1005.7
20260507072042 10 0 0.0 8.0 0.00 0.79 0.00 85 1005.5
20260507071546 10 309 3.2 11.3 0.00 0.79 0.00 85 1005.8
20260507071043 10 321 3.2 11.3 0.00 0.79 0.00 84 1005.8
20260507070543 10 294 1.6 17.7 0.00 0.79 0.00 85 1005.5
20260507070048 10 22 1.6 17.7 0.00 0.79 0.00 85 1005.4
20260507065542 10 261 1.6 14.5 0.00 0.79 0.00 84 1005.7
20260507065042 10 194 3.2 14.5 0.00 0.79 0.00 85 1005.6
20260507064550 10 280 1.6 14.5 0.00 0.79 0.00 85 1005.5
20260507064042 10 0 3.2 14.5 0.00 0.79 0.00 86 1005.3
20260507063542 10 279 0.0 8.0 0.00 0.79 0.00 86 1005.2
20260507063051 10 0 1.6 11.3 0.00 0.79 0.00 87 1005.4
20260507062543 10 166 1.6 11.3 0.00 0.79 0.00 87 1005.2
20260507062044 10 246 1.6 11.3 0.00 0.79 0.00 87 1005.3
20260507061548 10 0 0.0 11.3 0.00 0.79 0.00 87 1005.5
20260507061044 10 204 1.6 9.7 0.00 0.79 0.00 87 1005.5
20260507060542 10 175 1.6 8.0 0.00 0.79 0.00 86 1005.6
20260507060048 10 0 1.6 8.0 0.00 0.79 0.00 87 1005.5
20260507055543 10 0 1.6 8.0 0.00 0.79 0.00 87 1005.5
20260507055045 11 181 0.0 12.9 0.00 0.79 0.00 87 1005.5
20260507054607 11 144 3.2 12.9 0.00 0.79 0.00 87 1005.5
20260507054042 11 182 0.0 8.0 0.00 0.79 0.00 87 1005.2
20260507053545 11 221 1.6 8.0 0.00 0.79 0.00 87 1005.4
20260507053053 11 0 1.6 9.7 0.00 0.79 0.00 87 1005.5
20260507052542 11 0 1.6 9.7 0.00 0.79 0.00 87 1005.4
20260507052042 11 261 3.2 11.3 0.00 0.79 0.00 87 1005.4
20260507051550 11 279 1.6 11.3 0.00 0.79 0.00 86 1005.1
20260507051048 11 217 0.0 9.7 0.00 0.79 0.00 87 1005.1
20260507050543 11 274 3.2 9.7 0.00 0.79 0.00 87 1005.0
20260507050056 11 0 1.6 8.0 0.00 0.79 0.00 87 1005.1
20260507045544 11 215 0.0 11.3 0.00 0.79 0.00 87 1005.3
20260507045043 11 278 1.6 12.9 0.00 0.79 0.00 87 1005.2
20260507044554 12 0 3.2 12.9 0.00 0.79 0.00 87 1005.2
20260507044042 12 211 1.6 9.7 0.00 0.79 0.00 88 1005.3
20260507043542 12 204 1.6 9.7 0.00 0.79 0.00 88 1005.4
20260507043053 12 225 1.6 12.9 0.00 0.79 0.00 88 1005.3
20260507042543 12 248 3.2 12.9 0.00 0.79 0.00 87 1005.2
20260507042043 12 247 0.0 11.3 0.00 0.79 0.00 87 1005.0
20260507041600 12 210 1.6 11.3 0.00 0.79 0.00 87 1005.0
20260507041043 12 0 3.2 14.5 0.00 0.79 0.00 87 1005.1
20260507040543 12 254 4.8 14.5 0.00 0.79 0.00 87 1005.2
20260507040051 12 242 1.6 8.0 0.00 0.79 0.00 87 1004.9
20260507035543 12 257 1.6 9.7 0.00 0.79 0.79 86 1004.7
20260507035043 13 294 1.6 9.7 0.00 0.79 0.79 86 1004.5
20260507034556 13 297 1.6 6.4 0.00 0.79 0.79 85 1004.5
20260507034042 13 319 1.6 11.3 0.00 0.79 0.79 86 1004.5
20260507033543 13 248 3.2 20.9 0.00 0.79 0.79 87 1004.5
20260507033100 13 230 3.2 20.9 0.00 0.79 0.79 88 1004.7
20260507032543 13 309 3.2 19.3 0.00 0.79 0.79 88 1004.8
20260507032042 14 340 4.8 19.3 0.00 0.79 0.79 89 1004.7
20260507031601 15 325 4.8 17.7 0.00 0.79 0.79 90 1004.7
20260507031042 15 315 1.6 17.7 0.00 0.79 0.79 93 1004.4
20260507030541 15 319 3.2 17.7 0.00 0.79 0.79 93 1004.2
20260507030054 15 342 4.8 19.3 0.00 0.79 0.79 94 1004.2
20260507025541 15 279 4.8 19.3 0.00 0.79 0.79 94 1004.2
20260507025041 15 0 1.6 6.4 0.00 0.79 0.79 94 1003.9
20260507024548 15 197 0.0 6.4 0.00 0.79 0.79 94 1003.9
20260507024115 15 239 1.6 8.0 0.00 0.79 0.79 94 1003.9
20260507023541 15 0 0.0 8.0 0.00 0.79 0.79 94 1003.8
20260507023051 15 192 1.6 8.0 0.00 0.79 0.79 94 1004.0
20260507022542 15 189 1.6 8.0 0.00 0.79 0.79 94 1003.9
20260507022042 15 183 3.2 6.4 0.00 0.79 0.79 94 1003.7
20260507021549 15 229 1.6 6.4 0.00 0.79 0.79 94 1003.7
20260507021044 15 226 1.6 6.4 0.00 0.79 0.79 94 1003.9
20260507020542 15 217 1.6 8.0 0.00 0.79 0.79 94 1003.9
20260507020048 15 217 1.6 8.0 0.00 0.79 0.79 93 1004.0
20260507015541 15 183 1.6 8.0 0.00 0.79 0.79 94 1004.0
20260507015041 15 213 1.6 11.3 0.00 0.79 0.79 94 1004.1
20260507014600 15 215 1.6 11.3 0.00 0.79 0.79 94 1004.2
20260507014042 15 205 0.0 9.7 0.00 0.79 0.79 94 1004.2
20260507013543 15 207 1.6 9.7 0.00 0.79 0.79 94 1004.2
20260507013047 15 0 0.0 6.4 0.00 0.79 0.79 94 1004.1
20260507012542 15 0 0.0 4.8 0.00 0.79 0.79 93 1004.2
20260507012041 15 205 1.6 8.0 0.00 0.79 0.79 94 1004.2
20260507011548 15 180 3.2 8.0 0.00 0.79 0.79 93 1004.3
20260507011042 15 213 0.0 8.0 0.00 0.79 0.79 94 1004.2
20260507010542 15 0 3.2 9.7 0.00 0.79 0.79 94 1004.3
20260507010048 15 203 3.2 9.7 0.00 0.79 0.79 94 1004.3
20260507005542 15 254 0.0 11.3 0.03 0.79 0.79 94 1004.1
20260507005041 15 244 0.0 11.3 0.03 0.79 0.79 94 1004.2
20260507004550 15 200 3.2 9.7 0.03 0.79 0.79 94 1004.3
20260507004042 15 215 1.6 8.0 0.03 0.79 0.79 94 1004.3
20260507003546 15 201 1.6 12.9 0.05 0.79 0.79 94 1004.0
20260507003050 15 184 3.2 12.9 0.05 0.79 0.79 94 1004.2
20260507002541 15 248 0.0 6.4 0.05 0.79 0.79 94 1004.1
20260507002042 15 206 0.0 9.7 0.08 0.79 0.79 94 1004.1
20260507001548 15 178 0.0 12.9 0.08 0.79 0.79 94 1004.1
20260507001042 15 198 1.6 12.9 0.08 0.79 0.79 93 1004.1
20260507000545 15 232 1.6 6.4 0.08 0.79 0.79 93 1004.0
20260507000044 15 176 1.6 8.0 0.08 0.79 0.79 94 1004.1
20260506235542 15 176 1.6 8.0 0.05 0.76 0.76 94 1004.0
20260506235046 15 182 1.6 8.0 0.05 0.76 0.76 93 1004.0
20260506234546 15 49 1.6 8.0 0.05 0.76 0.76 93 1004.0
20260506234045 15 205 0.0 6.4 0.05 0.76 0.76 93 1004.0
20260506233541 15 192 1.6 6.4 0.03 0.74 0.74 93 1003.9
20260506233107 15 220 1.6 6.4 0.03 0.74 0.74 93 1004.1
20260506232542 15 53 3.2 11.3 0.00 0.71 0.71 93 1004.1
20260506232042 15 177 1.6 11.3 0.00 0.71 0.71 93 1004.2
20260506231549 15 200 1.6 9.7 0.00 0.71 0.71 93 1004.3
20260506231045 15 224 1.6 6.4 0.00 0.71 0.71 93 1004.4
20260506230544 15 111 0.0 4.8 0.03 0.71 0.71 93 1004.3
20260506230049 15 173 0.0 4.8 0.03 0.71 0.71 93 1004.3
20260506225543 15 0 0.0 6.4 0.05 0.71 0.71 93 1004.2
20260506225043 15 0 1.6 8.0 0.08 0.71 0.71 93 1004.3
20260506224554 15 226 3.2 11.3 0.10 0.71 0.71 93 1004.4